Find WINDOW CLEANER BUNDLE

NORAD ID: 69237 Int'l Des: 1998-067YF Country: Russia operational
LEOCIRCULAR

現在のビュー

3D地球を読み込み中...

WINDOW CLEANER BUNDLEについて

説明を読み込み中...

次回通過

Passes for default location (London). Set your location on the main map for personalized predictions.

高度履歴

Loading altitude history...

軌道要素

1 69237U 98067YF 26149.22615189 .00147409 00000-0 24334-2 0 9996
2 69237 51.6250 33.9602 0004258 55.8774 304.2619 15.51233711 370
Epoch: May 29, 2026 • Age: 22 hours

現在のステータス

高度 411.4 km
速度 7.67 km/s
衛星直下点 1.25°N, 96.64°E
タイプ other

Most Searched